, AK

(GMT )
McGrath

Weather History for PAMC - March, 2013

Change the Weather History Date:

Thursday, March 7, 2013

  Actual Average Record
Temperature  
Mean Temperature 25 °F -  
Max Temperature 35 °F 21 °F 44 °F (2013)
Min Temperature 14 °F -5 °F -39 °F (1971)
Degree Days  
Heating Degree Days 40 57  
Month to date heating degree days 369 405  
Since 1 July heating degree days 10901 10643  
Cooling Degree Days 0    
Month to date cooling degree days 0  
Year to date cooling degree days 0  
Moisture  
Dew Point 18 °F    
Average Humidity 0    
Maximum Humidity 0    
Minimum Humidity 0    
Precipitation  
Precipitation 0.00 in 0.03 in 0.15 in (1963)
Month to date precipitation 0.06 0.21  
Year to date precipitation 3.23 2.24  
Snow  
Snow 0.00 in 0.40 in 4.10 in (1952)
Month to date snowfall 1.2 3.1  
Since 1 July snowfall 67.1 83.1  
Snow Depth 40.00 in    
Sea Level Pressure  
Sea Level Pressure 29.31 in    
Wind  
Wind Speed 6 mph (East)    
Max Wind Speed 20 mph    
Max Gust Speed 30 mph    
Visibility 10 miles    
Events      
T = Trace of Precipitation, MM = Missing Value Source: NWS Daily Summary

Daily Weather History Graph

Daily Weather History Graph

Search for Another Location

Airport or City:

Trip Planner

Search our weather history database for the weather conditions in past years. The results will help you decide how hot, cold, wet, or windy it might be!

Date:

Astronomy

Mar. 07, 2013 Rise Set
Actual Time 8:05 AM AKST 7:02 PM AKST
Civil Twilight 7:19 AM AKST 7:48 PM AKST
Nautical Twilight 6:26 AM AKST 8:41 PM AKST
Astronomical Twilight 5:31 AM AKST 9:37 PM AKST
Moon 6:24 AM AKST (3/7) 1:56 PM AKST (3/7)
Length of Visible Light 12h 28m
Length of Day
10h 56m
Waning Crescent, 19% of the Moon is Illuminated
Mar 7
Waning Crescent
Mar 11
New
Mar 19
First Quarter
Mar 27
Full
Apr 2
Last Quarter

Hourly Weather History & Observations

Time (AKST) Temp. Windchill Dew Point Humidity Pressure Visibility Wind Dir Wind Speed Gust Speed Precip Events Conditions
12:53 AM 15.1 °F - 12.0 °F 88% 29.63 in 10.0 mi Calm Calm - N/A   Overcast
1:53 AM 19.0 °F 13.9 °F 15.1 °F 85% 29.62 in 10.0 mi SW 3.5 mph - N/A   Overcast
3:53 AM 21.0 °F - 16.0 °F 81% 29.49 in 10.0 mi Calm Calm - N/A   Overcast
4:53 AM 21.9 °F 17.2 °F 16.0 °F 78% 29.47 in 10.0 mi SW 3.5 mph - N/A   Overcast
5:53 AM 25.0 °F 20.7 °F 15.1 °F 66% 29.42 in 10.0 mi Variable 3.5 mph - N/A   Overcast
6:53 AM 27.0 °F - 14.0 °F 58% 29.38 in 10.0 mi Calm Calm - N/A   Overcast
7:53 AM 26.1 °F 20.5 °F 15.1 °F 63% 29.37 in 10.0 mi NNW 4.6 mph - N/A   Overcast
8:53 AM 27.0 °F 20.5 °F 14.0 °F 58% 29.34 in 10.0 mi NNW 5.8 mph - N/A   Overcast
9:53 AM 28.0 °F 20.0 °F 15.1 °F 58% 29.31 in 10.0 mi ENE 8.1 mph - N/A   Overcast
10:53 AM 30.0 °F 20.5 °F 16.0 °F 56% 29.27 in 10.0 mi East 11.5 mph 17.3 mph N/A   Overcast
11:53 AM 32.0 °F 21.6 °F 18.0 °F 56% 29.23 in 10.0 mi East 15.0 mph 26.5 mph N/A   Overcast
12:53 PM 33.1 °F 21.5 °F 18.0 °F 54% 29.21 in 10.0 mi ESE 19.6 mph 26.5 mph N/A   Overcast
1:53 PM 34.0 °F 24.6 °F 18.0 °F 52% 29.18 in 10.0 mi East 13.8 mph 20.7 mph N/A   Overcast
2:53 PM 36.0 °F 29.6 °F 19.0 °F 50% 29.17 in 10.0 mi East 8.1 mph 17.3 mph N/A   Mostly Cloudy
4:53 PM 39.0 °F 32.3 °F 19.9 °F 46% 29.17 in 10.0 mi East 10.4 mph 17.3 mph N/A   Clear
5:53 PM 43.0 °F 35.4 °F 21.9 °F 43% 29.16 in 10.0 mi East 16.1 mph 28.8 mph N/A   Clear
6:53 PM 42.1 °F 35.7 °F 19.9 °F 41% 29.17 in 10.0 mi ESE 11.5 mph 24.2 mph N/A   Clear
7:53 PM 41.0 °F 32.5 °F 19.9 °F 43% 29.20 in 10.0 mi ESE 17.3 mph 29.9 mph N/A   Clear
8:53 PM 39.0 °F 31.4 °F 21.0 °F 49% 29.23 in 10.0 mi East 12.7 mph 25.3 mph N/A   Clear
9:53 PM 37.9 °F 29.2 °F 21.0 °F 51% 29.23 in 10.0 mi East 15.0 mph 24.2 mph N/A   Clear
10:53 PM 37.9 °F 29.6 °F 21.0 °F 51% 29.24 in 10.0 mi East 13.8 mph 20.7 mph N/A   Clear
11:53 PM 37.9 °F 29.2 °F 21.0 °F 51% 29.25 in 10.0 mi East 15.0 mph 24.2 mph N/A   Clear